Time,TemperatureF,DewpointF,PressureIn,WindDirection,WindDirectionDegrees,WindSpeedMPH,WindSpeedGustMPH,Humidity,HourlyPrecipIn,Conditions,Clouds,dailyrainin,SoftwareType,DateUTC
2013-08-27 00:02:00,71.3,68.9,29.74,SSE,153,1.0,1.0,92,0.00,,,0.00,Wunderground v.1.15,2013-08-27 05:02:00,
2013-08-27 00:07:00,71.3,68.9,29.74,SSE,156,1.0,1.0,92,0.00,,,0.00,Wunderground v.1.15,2013-08-27 05:07:00,
2013-08-27 00:12:00,71.2,68.8,29.74,South,172,0.0,1.0,92,0.00,,,0.00,Wunderground v.1.15,2013-08-27 05:12:00,
2013-08-27 00:18:00,71.1,68.7,29.74,SSE,166,0.0,1.0,92,0.00,,,0.00,Wunderground v.1.15,2013-08-27 05:18:00,
2013-08-27 00:23:00,71.0,68.6,29.74,SE,134,0.0,0.0,92,0.00,,,0.00,Wunderground v.1.15,2013-08-27 05:23:00,
2013-08-27 00:28:00,71.0,68.6,29.74,ESE,117,0.0,0.0,92,0.00,,,0.00,Wunderground v.1.15,2013-08-27 05:28:00,
2013-08-27 00:34:00,70.9,68.5,29.74,SE,146,0.0,0.0,92,0.00,,,0.00,Wunderground v.1.15,2013-08-27 05:34:00,
2013-08-27 00:39:00,70.9,68.5,29.75,SSE,147,0.0,0.0,92,0.00,,,0.00,Wunderground v.1.15,2013-08-27 05:39:00,
2013-08-27 00:44:00,70.8,68.4,29.75,SE,141,0.0,0.0,92,0.00,,,0.00,Wunderground v.1.15,2013-08-27 05:44:00,
2013-08-27 00:50:00,70.7,68.3,29.75,SE,134,1.0,1.0,92,0.00,,,0.00,Wunderground v.1.15,2013-08-27 05:50:00,
2013-08-27 00:55:00,70.8,68.4,29.75,SE,129,0.0,1.0,92,0.00,,,0.00,Wunderground v.1.15,2013-08-27 05:55:00,
2013-08-27 01:00:00,70.8,68.4,29.75,SE,129,0.0,1.0,92,0.00,,,0.00,Wunderground v.1.15,2013-08-27 06:00:00,
2013-08-27 01:06:00,70.6,68.2,29.75,SSE,158,0.0,1.0,92,0.00,,,0.00,Wunderground v.1.15,2013-08-27 06:06:00,
2013-08-27 01:11:00,70.4,68.0,29.74,SE,146,1.0,1.0,92,0.00,,,0.00,Wunderground v.1.15,2013-08-27 06:11:00,
2013-08-27 01:16:00,70.3,67.9,29.74,SE,134,0.0,1.0,92,0.00,,,0.00,Wunderground v.1.15,2013-08-27 06:16:00,
2013-08-27 01:22:00,70.2,68.1,29.74,SSE,152,0.0,0.0,93,0.00,,,0.00,Wunderground v.1.15,2013-08-27 06:22:00,
2013-08-27 01:27:00,70.1,68.0,29.74,SE,132,0.0,0.0,93,0.00,,,0.00,Wunderground v.1.15,2013-08-27 06:27:00,
2013-08-27 01:33:00,70.0,67.9,29.74,SSE,162,0.0,0.0,93,0.00,,,0.00,Wunderground v.1.15,2013-08-27 06:33:00,
2013-08-27 01:38:00,69.8,67.7,29.74,SE,138,0.0,0.0,93,0.00,,,0.00,Wunderground v.1.15,2013-08-27 06:38:00,
2013-08-27 01:43:00,69.7,67.6,29.74,SSE,161,0.0,0.0,93,0.00,,,0.00,Wunderground v.1.15,2013-08-27 06:43:00,
2013-08-27 01:48:00,69.7,67.6,29.74,SSE,153,0.0,0.0,93,0.00,,,0.00,Wunderground v.1.15,2013-08-27 06:48:00,
2013-08-27 01:54:00,69.7,67.6,29.74,South,178,1.0,1.0,93,0.00,,,0.00,Wunderground v.1.15,2013-08-27 06:54:00,
2013-08-27 01:59:00,69.6,67.5,29.74,SSE,165,1.0,1.0,93,0.00,,,0.00,Wunderground v.1.15,2013-08-27 06:59:00,
2013-08-27 02:04:00,69.5,67.4,29.74,SSE,168,2.0,2.0,93,0.00,,,0.00,Wunderground v.1.15,2013-08-27 07:04:00,
2013-08-27 02:09:00,69.4,67.3,29.74,SSE,155,0.0,2.0,93,0.00,,,0.00,Wunderground v.1.15,2013-08-27 07:09:00,
2013-08-27 02:14:00,69.3,67.2,29.74,SSE,162,1.0,1.0,93,0.00,,,0.00,Wunderground v.1.15,2013-08-27 07:14:00,
2013-08-27 02:19:00,69.2,67.1,29.74,South,173,1.0,3.0,93,0.00,,,0.00,Wunderground v.1.15,2013-08-27 07:19:00,
2013-08-27 02:24:00,69.2,67.1,29.74,SSE,153,1.0,2.0,93,0.00,,,0.00,Wunderground v.1.15,2013-08-27 07:24:00,
2013-08-27 02:29:00,69.1,67.0,29.74,SE,142,1.0,2.0,93,0.00,,,0.00,Wunderground v.1.15,2013-08-27 07:29:00,
2013-08-27 02:34:00,69.1,67.0,29.74,SE,144,0.0,1.0,93,0.00,,,0.00,Wunderground v.1.15,2013-08-27 07:34:00,
2013-08-27 02:39:00,69.1,67.0,29.74,SSW,200,2.0,3.0,93,0.00,,,0.00,Wunderground v.1.15,2013-08-27 07:39:00,
2013-08-27 02:44:00,69.0,66.9,29.74,SW,217,2.0,2.0,93,0.00,,,0.00,Wunderground v.1.15,2013-08-27 07:44:00,
2013-08-27 02:49:00,69.0,66.9,29.73,SSE,167,1.0,2.0,93,0.00,,,0.00,Wunderground v.1.15,2013-08-27 07:49:00,
2013-08-27 02:54:00,69.0,66.9,29.74,SSE,159,0.0,3.0,93,0.00,,,0.00,Wunderground v.1.15,2013-08-27 07:54:00,
2013-08-27 02:59:00,68.9,66.8,29.74,South,187,0.0,3.0,93,0.00,,,0.00,Wunderground v.1.15,2013-08-27 07:59:00,
2013-08-27 03:04:00,68.9,66.5,29.74,South,184,1.0,3.0,92,0.00,,,0.00,Wunderground v.1.15,2013-08-27 08:04:00,
2013-08-27 03:09:00,68.9,66.5,29.73,SSE,155,0.0,3.0,92,0.00,,,0.00,Wunderground v.1.15,2013-08-27 08:09:00,
2013-08-27 03:15:00,68.9,66.5,29.73,SSE,155,0.0,4.0,92,0.00,,,0.00,Wunderground v.1.15,2013-08-27 08:15:00,
2013-08-27 03:20:00,68.8,66.4,29.73,South,170,1.0,4.0,92,0.00,,,0.00,Wunderground v.1.15,2013-08-27 08:20:00,
2013-08-27 03:25:00,68.8,66.4,29.73,SSE,167,1.0,3.0,92,0.00,,,0.00,Wunderground v.1.15,2013-08-27 08:25:00,
2013-08-27 03:30:00,68.8,66.4,29.73,SSE,165,2.0,3.0,92,0.00,,,0.00,Wunderground v.1.15,2013-08-27 08:30:00,
2013-08-27 03:35:00,68.7,66.3,29.73,SSE,155,1.0,3.0,92,0.00,,,0.00,Wunderground v.1.15,2013-08-27 08:35:00,
2013-08-27 03:40:00,68.6,66.2,29.73,South,177,2.0,3.0,92,0.00,,,0.00,Wunderground v.1.15,2013-08-27 08:40:00,
2013-08-27 03:45:00,68.6,66.2,29.73,SSW,195,0.0,2.0,92,0.00,,,0.00,Wunderground v.1.15,2013-08-27 08:45:00,
2013-08-27 03:50:00,68.6,65.9,29.73,South,173,1.0,1.0,91,0.00,,,0.00,Wunderground v.1.15,2013-08-27 08:50:00,
2013-08-27 03:55:00,68.5,66.1,29.73,SSW,200,0.0,2.0,92,0.00,,,0.00,Wunderground v.1.15,2013-08-27 08:55:00,
2013-08-27 04:00:00,68.4,65.7,29.73,SSE,155,0.0,1.0,91,0.00,,,0.00,Wunderground v.1.15,2013-08-27 09:00:00,
2013-08-27 04:05:00,68.4,65.7,29.73,SSE,158,0.0,1.0,91,0.00,,,0.00,Wunderground v.1.15,2013-08-27 09:05:00,
2013-08-27 04:10:00,68.4,65.7,29.73,South,179,0.0,0.0,91,0.00,,,0.00,Wunderground v.1.15,2013-08-27 09:10:00,
2013-08-27 04:15:00,68.3,65.6,29.73,SE,136,0.0,0.0,91,0.00,,,0.00,Wunderground v.1.15,2013-08-27 09:15:00,
2013-08-27 04:20:00,68.2,65.5,29.73,SW,219,0.0,0.0,91,0.00,,,0.00,Wunderground v.1.15,2013-08-27 09:20:00,
2013-08-27 04:25:00,68.3,65.6,29.73,SSW,195,0.0,0.0,91,0.00,,,0.00,Wunderground v.1.15,2013-08-27 09:25:00,
2013-08-27 04:30:00,68.2,65.5,29.73,SSW,205,0.0,0.0,91,0.00,,,0.00,Wunderground v.1.15,2013-08-27 09:30:00,
2013-08-27 04:35:00,68.2,65.5,29.73,SSE,158,0.0,0.0,91,0.00,,,0.00,Wunderground v.1.15,2013-08-27 09:35:00,
2013-08-27 04:40:00,68.1,65.4,29.73,SSE,165,0.0,0.0,91,0.00,,,0.00,Wunderground v.1.15,2013-08-27 09:40:00,
2013-08-27 04:46:00,68.1,65.4,29.73,SSE,147,0.0,0.0,91,0.00,,,0.00,Wunderground v.1.15,2013-08-27 09:46:00,
2013-08-27 04:51:00,68.1,65.1,29.73,SW,216,0.0,0.0,90,0.00,,,0.00,Wunderground v.1.15,2013-08-27 09:51:00,
2013-08-27 04:56:00,68.0,65.0,29.73,SSE,167,0.0,0.0,90,0.00,,,0.00,Wunderground v.1.15,2013-08-27 09:56:00,
2013-08-27 05:01:00,68.0,65.0,29.73,SSE,162,0.0,0.0,90,0.00,,,0.00,Wunderground v.1.15,2013-08-27 10:01:00,
2013-08-27 05:06:00,68.0,65.0,29.73,SSE,160,0.0,0.0,90,0.00,,,0.00,Wunderground v.1.15,2013-08-27 10:06:00,
2013-08-27 05:11:00,67.9,64.9,29.73,SSE,162,0.0,0.0,90,0.00,,,0.00,Wunderground v.1.15,2013-08-27 10:11:00,
2013-08-27 05:16:00,67.9,64.9,29.73,SSE,165,0.0,0.0,90,0.00,,,0.00,Wunderground v.1.15,2013-08-27 10:16:00,
2013-08-27 05:21:00,67.8,64.8,29.73,South,181,0.0,0.0,90,0.00,,,0.00,Wunderground v.1.15,2013-08-27 10:21:00,
2013-08-27 05:26:00,67.8,64.8,29.73,SSE,161,0.0,0.0,90,0.00,,,0.00,Wunderground v.1.15,2013-08-27 10:26:00,
2013-08-27 05:31:00,67.7,64.7,29.73,SE,136,0.0,0.0,90,0.00,,,0.00,Wunderground v.1.15,2013-08-27 10:31:00,
2013-08-27 05:36:00,67.5,64.5,29.73,SE,142,0.0,0.0,90,0.00,,,0.00,Wunderground v.1.15,2013-08-27 10:36:00,
2013-08-27 05:41:00,67.5,64.5,29.73,SE,138,0.0,0.0,90,0.00,,,0.00,Wunderground v.1.15,2013-08-27 10:41:00,
2013-08-27 05:46:00,67.3,64.3,29.73,SSE,165,0.0,0.0,90,0.00,,,0.00,Wunderground v.1.15,2013-08-27 10:46:00,
2013-08-27 05:51:00,67.3,64.3,29.73,South,190,0.0,0.0,90,0.00,,,0.00,Wunderground v.1.15,2013-08-27 10:51:00,
2013-08-27 05:56:00,67.2,64.2,29.73,South,186,0.0,0.0,90,0.00,,,0.00,Wunderground v.1.15,2013-08-27 10:56:00,
2013-08-27 06:01:00,67.2,64.2,29.73,South,187,0.0,0.0,90,0.00,,,0.00,Wunderground v.1.15,2013-08-27 11:01:00,
2013-08-27 06:06:00,67.2,64.2,29.73,SSW,208,0.0,0.0,90,0.00,,,0.00,Wunderground v.1.15,2013-08-27 11:06:00,
2013-08-27 06:11:00,67.1,64.4,29.73,SSE,165,0.0,0.0,91,0.00,,,0.00,Wunderground v.1.15,2013-08-27 11:11:00,
2013-08-27 06:17:00,67.1,64.4,29.73,SSW,198,0.0,0.0,91,0.00,,,0.00,Wunderground v.1.15,2013-08-27 11:17:00,
2013-08-27 06:22:00,67.1,64.4,29.73,SSE,167,0.0,0.0,91,0.00,,,0.00,Wunderground v.1.15,2013-08-27 11:22:00,
2013-08-27 06:27:00,67.1,64.4,29.73,SSW,195,0.0,0.0,91,0.00,,,0.00,Wunderground v.1.15,2013-08-27 11:27:00,
2013-08-27 06:32:00,67.1,64.4,29.73,SSE,151,0.0,0.0,91,0.00,,,0.00,Wunderground v.1.15,2013-08-27 11:32:00,
2013-08-27 06:37:00,67.2,64.2,29.73,South,169,0.0,0.0,90,0.00,,,0.00,Wunderground v.1.15,2013-08-27 11:37:00,
2013-08-27 06:42:00,67.2,64.2,29.74,SSE,158,0.0,0.0,90,0.00,,,0.00,Wunderground v.1.15,2013-08-27 11:42:00,
2013-08-27 06:47:00,67.4,64.4,29.74,SW,219,0.0,0.0,90,0.00,,,0.00,Wunderground v.1.15,2013-08-27 11:47:00,
2013-08-27 06:52:00,67.6,64.2,29.74,SSE,159,0.0,0.0,89,0.00,,,0.00,Wunderground v.1.15,2013-08-27 11:52:00,
2013-08-27 06:57:00,67.8,64.4,29.74,SSW,193,0.0,0.0,89,0.00,,,0.00,Wunderground v.1.15,2013-08-27 11:57:00,
2013-08-27 07:02:00,68.1,64.7,29.74,SW,224,0.0,0.0,89,0.00,,,0.00,Wunderground v.1.15,2013-08-27 12:02:00,
2013-08-27 07:07:00,68.3,64.6,29.74,SW,221,0.0,0.0,88,0.00,,,0.00,Wunderground v.1.15,2013-08-27 12:07:00,
2013-08-27 07:12:00,68.6,64.9,29.74,SW,219,0.0,0.0,88,0.00,,,0.00,Wunderground v.1.15,2013-08-27 12:12:00,
2013-08-27 07:17:00,68.9,64.9,29.74,SW,215,0.0,0.0,87,0.00,,,0.00,Wunderground v.1.15,2013-08-27 12:17:00,
2013-08-27 07:22:00,69.4,65.4,29.74,SSW,197,0.0,0.0,87,0.00,,,0.00,Wunderground v.1.15,2013-08-27 12:22:00,
2013-08-27 07:27:00,69.7,65.3,29.74,SW,221,0.0,0.0,86,0.00,,,0.00,Wunderground v.1.15,2013-08-27 12:27:00,
2013-08-27 07:32:00,70.1,65.7,29.74,South,174,0.0,0.0,86,0.00,,,0.00,Wunderground v.1.15,2013-08-27 12:32:00,
2013-08-27 07:37:00,70.6,65.9,29.74,SSE,158,0.0,0.0,85,0.00,,,0.00,Wunderground v.1.15,2013-08-27 12:37:00,
2013-08-27 07:42:00,71.1,66.0,29.74,SE,142,0.0,0.0,84,0.00,,,0.00,Wunderground v.1.15,2013-08-27 12:42:00,
2013-08-27 07:48:00,71.4,66.3,29.74,SSW,206,0.0,0.0,84,0.00,,,0.00,Wunderground v.1.15,2013-08-27 12:48:00,
2013-08-27 07:53:00,71.6,66.2,29.74,SSW,203,0.0,0.0,83,0.00,,,0.00,Wunderground v.1.15,2013-08-27 12:53:00,
2013-08-27 07:58:00,71.9,66.5,29.74,WSW,244,0.0,0.0,83,0.00,,,0.00,Wunderground v.1.15,2013-08-27 12:58:00,
2013-08-27 08:03:00,72.3,66.1,29.74,WSW,242,0.0,0.0,81,0.00,,,0.00,Wunderground v.1.15,2013-08-27 13:03:00,
2013-08-27 08:08:00,72.6,66.4,29.74,SW,224,0.0,0.0,81,0.00,,,0.00,Wunderground v.1.15,2013-08-27 13:08:00,
2013-08-27 08:13:00,72.8,66.6,29.74,West,268,0.0,0.0,81,0.00,,,0.00,Wunderground v.1.15,2013-08-27 13:13:00,
2013-08-27 08:18:00,72.9,66.4,29.74,WSW,246,0.0,8.0,80,0.00,,,0.00,Wunderground v.1.15,2013-08-27 13:18:00,
2013-08-27 08:23:00,73.1,66.6,29.74,SSW,210,0.0,2.0,80,0.00,,,0.00,Wunderground v.1.15,2013-08-27 13:23:00,
2013-08-27 08:28:00,73.5,66.9,29.75,WSW,245,0.0,5.0,80,0.00,,,0.00,Wunderground v.1.15,2013-08-27 13:28:00,
2013-08-27 08:33:00,73.8,66.9,29.75,SSW,210,3.0,8.0,79,0.00,,,0.00,Wunderground v.1.15,2013-08-27 13:33:00,
2013-08-27 08:38:00,74.0,67.1,29.75,WSW,240,4.0,8.0,79,0.00,,,0.00,Wunderground v.1.15,2013-08-27 13:38:00,
2013-08-27 08:43:00,73.9,67.0,29.74,West,273,0.0,8.0,79,0.00,,,0.00,Wunderground v.1.15,2013-08-27 13:43:00,
2013-08-27 08:48:00,74.2,67.3,29.75,SW,226,0.0,8.0,79,0.00,,,0.00,Wunderground v.1.15,2013-08-27 13:48:00,
2013-08-27 08:53:00,74.4,67.5,29.74,WSW,242,0.0,7.0,79,0.00,,,0.00,Wunderground v.1.15,2013-08-27 13:53:00,
2013-08-27 08:58:00,74.7,67.8,29.74,SW,218,3.0,8.0,79,0.00,,,0.00,Wunderground v.1.15,2013-08-27 13:58:00,
2013-08-27 09:03:00,75.0,67.7,29.74,SW,229,0.0,2.0,78,0.00,,,0.00,Wunderground v.1.15,2013-08-27 14:03:00,
2013-08-27 09:08:00,75.4,67.7,29.74,SW,225,0.0,6.0,77,0.00,,,0.00,Wunderground v.1.15,2013-08-27 14:08:00,
2013-08-27 09:13:00,75.7,67.6,29.74,SW,224,0.0,9.0,76,0.00,,,0.00,Wunderground v.1.15,2013-08-27 14:13:00,
2013-08-27 09:19:00,76.0,67.5,29.74,WNW,298,0.0,9.0,75,0.00,,,0.00,Wunderground v.1.15,2013-08-27 14:19:00,
2013-08-27 09:24:00,76.4,67.9,29.75,WSW,241,2.0,4.0,75,0.00,,,0.00,Wunderground v.1.15,2013-08-27 14:24:00,
2013-08-27 09:29:00,76.5,68.0,29.75,SSW,211,2.0,8.0,75,0.00,,,0.00,Wunderground v.1.15,2013-08-27 14:29:00,
2013-08-27 09:34:00,76.7,67.8,29.75,SW,214,6.0,10.0,74,0.00,,,0.00,Wunderground v.1.15,2013-08-27 14:34:00,
2013-08-27 09:39:00,76.9,68.0,29.75,SSW,211,1.0,10.0,74,0.00,,,0.00,Wunderground v.1.15,2013-08-27 14:39:00,
2013-08-27 09:44:00,76.8,68.3,29.75,NW,306,0.0,8.0,75,0.00,,,0.00,Wunderground v.1.15,2013-08-27 14:44:00,
2013-08-27 09:49:00,77.0,68.5,29.75,SW,221,4.0,8.0,75,0.00,,,0.00,Wunderground v.1.15,2013-08-27 14:49:00,
2013-08-27 09:54:00,77.0,68.1,29.75,SW,222,4.0,8.0,74,0.00,,,0.00,Wunderground v.1.15,2013-08-27 14:54:00,
2013-08-27 09:59:00,77.1,68.2,29.75,SSW,195,4.0,8.0,74,0.00,,,0.00,Wunderground v.1.15,2013-08-27 14:59:00,
2013-08-27 10:04:00,77.5,68.6,29.75,WSW,242,3.0,7.0,74,0.00,,,0.00,Wunderground v.1.15,2013-08-27 15:04:00,
2013-08-27 10:09:00,78.1,68.3,29.75,WNW,283,1.0,7.0,72,0.00,,,0.00,Wunderground v.1.15,2013-08-27 15:09:00,
2013-08-27 10:14:00,78.6,68.4,29.75,WNW,285,6.0,6.0,71,0.00,,,0.00,Wunderground v.1.15,2013-08-27 15:14:00,
2013-08-27 10:19:00,79.1,68.5,29.75,SW,233,4.0,8.0,70,0.00,,,0.00,Wunderground v.1.15,2013-08-27 15:19:00,
2013-08-27 10:24:00,79.2,68.6,29.75,WNW,291,1.0,6.0,70,0.00,,,0.00,Wunderground v.1.15,2013-08-27 15:24:00,
2013-08-27 10:29:00,79.5,68.9,29.75,SW,225,1.0,6.0,70,0.00,,,0.00,Wunderground v.1.15,2013-08-27 15:29:00,
2013-08-27 10:34:00,79.8,68.7,29.75,SW,217,3.0,6.0,69,0.00,,,0.00,Wunderground v.1.15,2013-08-27 15:34:00,
2013-08-27 10:39:00,79.8,67.9,29.75,WSW,256,3.0,9.0,67,0.00,,,0.00,Wunderground v.1.15,2013-08-27 15:39:00,
2013-08-27 10:44:00,79.8,67.9,29.75,West,263,4.0,8.0,67,0.00,,,0.00,Wunderground v.1.15,2013-08-27 15:44:00,
2013-08-27 10:49:00,80.3,68.3,29.75,SSW,208,5.0,8.0,67,0.00,,,0.00,Wunderground v.1.15,2013-08-27 15:49:00,
2013-08-27 10:54:00,80.4,68.0,29.75,WNW,282,6.0,8.0,66,0.00,,,0.00,Wunderground v.1.15,2013-08-27 15:54:00,
2013-08-27 10:59:00,80.3,69.2,29.75,WNW,298,4.0,8.0,69,0.00,,,0.00,Wunderground v.1.15,2013-08-27 15:59:00,
2013-08-27 11:04:00,80.7,68.7,29.75,WSW,239,2.0,9.0,67,0.00,,,0.00,Wunderground v.1.15,2013-08-27 16:04:00,
2013-08-27 11:09:00,81.0,69.0,29.75,WSW,250,5.0,9.0,67,0.00,,,0.00,Wunderground v.1.15,2013-08-27 16:09:00,
2013-08-27 11:14:00,80.9,69.3,29.74,SE,124,1.0,7.0,68,0.00,,,0.00,Wunderground v.1.15,2013-08-27 16:14:00,
2013-08-27 11:19:00,80.6,68.6,29.74,SSW,212,5.0,9.0,67,0.00,,,0.00,Wunderground v.1.15,2013-08-27 16:19:00,
2013-08-27 11:24:00,80.0,68.5,29.74,SW,214,2.0,10.0,68,0.00,,,0.00,Wunderground v.1.15,2013-08-27 16:24:00,
2013-08-27 11:29:00,80.1,69.0,29.74,SE,144,2.0,10.0,69,0.00,,,0.00,Wunderground v.1.15,2013-08-27 16:29:00,
2013-08-27 11:34:00,80.4,69.3,29.74,SW,226,2.0,8.0,69,0.00,,,0.00,Wunderground v.1.15,2013-08-27 16:34:00,
2013-08-27 11:39:00,80.6,69.1,29.74,West,259,3.0,8.0,68,0.00,,,0.00,Wunderground v.1.15,2013-08-27 16:39:00,
2013-08-27 11:44:00,80.5,69.4,29.74,SW,233,2.0,5.0,69,0.00,,,0.00,Wunderground v.1.15,2013-08-27 16:44:00,
2013-08-27 11:49:00,80.6,69.1,29.74,West,266,1.0,10.0,68,0.00,,,0.00,Wunderground v.1.15,2013-08-27 16:49:00,
2013-08-27 11:54:00,80.4,68.9,29.74,SW,218,4.0,10.0,68,0.00,,,0.00,Wunderground v.1.15,2013-08-27 16:54:00,
2013-08-27 11:59:00,80.4,69.3,29.73,West,277,2.0,10.0,69,0.00,,,0.00,Wunderground v.1.15,2013-08-27 16:59:00,
2013-08-27 12:04:00,80.5,69.4,29.73,SW,228,3.0,7.0,69,0.00,,,0.00,Wunderground v.1.15,2013-08-27 17:04:00,
2013-08-27 12:09:00,80.4,69.3,29.73,SW,228,2.0,8.0,69,0.00,,,0.00,Wunderground v.1.15,2013-08-27 17:09:00,
2013-08-27 12:14:00,80.3,69.2,29.73,WNW,295,2.0,7.0,69,0.00,,,0.00,Wunderground v.1.15,2013-08-27 17:14:00,
2013-08-27 12:19:00,80.3,69.2,29.73,SW,235,4.0,7.0,69,0.00,,,0.00,Wunderground v.1.15,2013-08-27 17:19:00,
2013-08-27 12:24:00,80.3,70.0,29.73,SW,217,4.0,7.0,71,0.00,,,0.00,Wunderground v.1.15,2013-08-27 17:24:00,
2013-08-27 12:29:00,80.4,69.7,29.72,WSW,239,5.0,7.0,70,0.00,,,0.00,Wunderground v.1.15,2013-08-27 17:29:00,
2013-08-27 12:34:00,80.3,69.6,29.72,SW,233,2.0,7.0,70,0.00,,,0.00,Wunderground v.1.15,2013-08-27 17:34:00,
2013-08-27 12:39:00,80.4,69.7,29.72,West,269,2.0,7.0,70,0.00,,,0.00,Wunderground v.1.15,2013-08-27 17:39:00,
2013-08-27 12:44:00,80.6,69.9,29.72,SSW,210,4.0,6.0,70,0.00,,,0.00,Wunderground v.1.15,2013-08-27 17:44:00,
2013-08-27 12:49:00,80.9,70.2,29.72,WSW,252,3.0,6.0,70,0.00,,,0.00,Wunderground v.1.15,2013-08-27 17:49:00,
2013-08-27 12:54:00,81.4,70.7,29.71,SSW,211,5.0,7.0,70,0.00,,,0.00,Wunderground v.1.15,2013-08-27 17:54:00,
2013-08-27 12:59:00,81.6,70.9,29.71,SSE,165,4.0,8.0,70,0.00,,,0.00,Wunderground v.1.15,2013-08-27 17:59:00,
2013-08-27 13:04:00,81.3,70.6,29.71,SSW,206,6.0,8.0,70,0.00,,,0.00,Wunderground v.1.15,2013-08-27 18:04:00,
2013-08-27 13:09:00,81.5,70.3,29.71,SSE,163,2.0,8.0,69,0.00,,,0.00,Wunderground v.1.15,2013-08-27 18:09:00,
2013-08-27 13:14:00,81.8,70.6,29.71,SW,219,6.0,7.0,69,0.00,,,0.00,Wunderground v.1.15,2013-08-27 18:14:00,
2013-08-27 13:19:00,82.2,70.6,29.71,SSW,205,4.0,9.0,68,0.00,,,0.00,Wunderground v.1.15,2013-08-27 18:19:00,
2013-08-27 13:24:00,81.7,70.1,29.71,SSW,208,4.0,8.0,68,0.00,,,0.00,Wunderground v.1.15,2013-08-27 18:24:00,
2013-08-27 13:29:00,81.5,70.3,29.70,SSW,199,5.0,8.0,69,0.00,,,0.00,Wunderground v.1.15,2013-08-27 18:29:00,
2013-08-27 13:34:00,81.7,70.1,29.70,South,187,5.0,7.0,68,0.00,,,0.00,Wunderground v.1.15,2013-08-27 18:34:00,
2013-08-27 13:39:00,81.8,70.2,29.70,SW,228,4.0,8.0,68,0.00,,,0.00,Wunderground v.1.15,2013-08-27 18:39:00,
2013-08-27 13:44:00,82.1,70.5,29.70,SE,132,6.0,9.0,68,0.00,,,0.00,Wunderground v.1.15,2013-08-27 18:44:00,
2013-08-27 13:49:00,82.3,70.2,29.70,SW,225,2.0,9.0,67,0.00,,,0.00,Wunderground v.1.15,2013-08-27 18:49:00,
2013-08-27 13:54:00,82.6,70.5,29.70,SSW,208,4.0,8.0,67,0.00,,,0.00,Wunderground v.1.15,2013-08-27 18:54:00,
2013-08-27 13:59:00,82.5,70.4,29.69,SSW,204,5.0,8.0,67,0.00,,,0.00,Wunderground v.1.15,2013-08-27 18:59:00,
2013-08-27 14:04:00,82.1,70.5,29.69,WSW,250,2.0,7.0,68,0.00,,,0.00,Wunderground v.1.15,2013-08-27 19:04:00,
2013-08-27 14:09:00,81.9,70.3,29.69,SW,221,6.0,7.0,68,0.00,,,0.00,Wunderground v.1.15,2013-08-27 19:09:00,
2013-08-27 14:14:00,82.0,71.2,29.69,SSW,208,4.0,7.0,70,0.00,,,0.00,Wunderground v.1.15,2013-08-27 19:14:00,
2013-08-27 14:19:00,82.6,71.4,29.69,SSE,152,3.0,7.0,69,0.00,,,0.00,Wunderground v.1.15,2013-08-27 19:19:00,
2013-08-27 14:24:00,82.7,71.1,29.69,SSE,158,4.0,11.0,68,0.00,,,0.00,Wunderground v.1.15,2013-08-27 19:24:00,
2013-08-27 14:29:00,82.7,70.6,29.68,SSW,207,5.0,11.0,67,0.00,,,0.00,Wunderground v.1.15,2013-08-27 19:29:00,
2013-08-27 14:34:00,82.8,71.2,29.68,SW,223,2.0,10.0,68,0.00,,,0.00,Wunderground v.1.15,2013-08-27 19:34:00,
2013-08-27 14:40:00,83.1,71.0,29.68,South,184,2.0,10.0,67,0.00,,,0.00,Wunderground v.1.15,2013-08-27 19:40:00,
2013-08-27 14:45:00,83.4,70.8,29.68,WSW,238,3.0,6.0,66,0.00,,,0.00,Wunderground v.1.15,2013-08-27 19:45:00,
2013-08-27 14:50:00,83.3,71.2,29.68,SSE,166,4.0,8.0,67,0.00,,,0.00,Wunderground v.1.15,2013-08-27 19:50:00,
2013-08-27 14:55:00,83.6,71.5,29.67,SW,236,3.0,7.0,67,0.00,,,0.00,Wunderground v.1.15,2013-08-27 19:55:00,
2013-08-27 15:00:00,84.2,71.6,29.67,SSW,199,2.0,3.0,66,0.00,,,0.00,Wunderground v.1.15,2013-08-27 20:00:00,
2013-08-27 15:05:00,84.6,72.0,29.67,SW,224,2.0,8.0,66,0.00,,,0.00,Wunderground v.1.15,2013-08-27 20:05:00,
2013-08-27 15:10:00,84.7,71.2,29.67,WNW,283,2.0,3.0,64,0.00,,,0.00,Wunderground v.1.15,2013-08-27 20:10:00,
2013-08-27 15:15:00,84.8,71.3,29.67,WSW,246,5.0,8.0,64,0.00,,,0.00,Wunderground v.1.15,2013-08-27 20:15:00,
2013-08-27 15:20:00,84.7,70.2,29.67,SW,231,0.0,3.0,62,0.00,,,0.00,Wunderground v.1.15,2013-08-27 20:20:00,
2013-08-27 15:25:00,85.1,71.5,29.67,WSW,252,2.0,7.0,64,0.00,,,0.00,Wunderground v.1.15,2013-08-27 20:25:00,
2013-08-27 15:30:00,85.2,72.1,29.67,SW,219,1.0,2.0,65,0.00,,,0.00,Wunderground v.1.15,2013-08-27 20:30:00,
2013-08-27 15:35:00,85.6,71.6,29.67,South,180,3.0,9.0,63,0.00,,,0.00,Wunderground v.1.15,2013-08-27 20:35:00,
2013-08-27 15:40:00,85.1,71.1,29.67,SW,225,3.0,4.0,63,0.00,,,0.00,Wunderground v.1.15,2013-08-27 20:40:00,
2013-08-27 15:45:00,84.8,71.7,29.67,SW,219,4.0,9.0,65,0.00,,,0.00,Wunderground v.1.15,2013-08-27 20:45:00,
2013-08-27 15:50:00,85.0,71.5,29.67,SW,226,2.0,4.0,64,0.00,,,0.00,Wunderground v.1.15,2013-08-27 20:50:00,
2013-08-27 15:55:00,85.1,71.5,29.67,SSW,194,3.0,5.0,64,0.00,,,0.00,Wunderground v.1.15,2013-08-27 20:55:00,
2013-08-27 16:00:00,85.6,71.1,29.67,West,261,4.0,7.0,62,0.00,,,0.00,Wunderground v.1.15,2013-08-27 21:00:00,
2013-08-27 16:05:00,85.4,71.4,29.66,SW,221,2.0,7.0,63,0.00,,,0.00,Wunderground v.1.15,2013-08-27 21:05:00,
2013-08-27 16:10:00,85.6,71.6,29.66,SSE,160,5.0,6.0,63,0.00,,,0.00,Wunderground v.1.15,2013-08-27 21:10:00,
2013-08-27 16:15:00,85.2,71.2,29.66,WSW,256,4.0,6.0,63,0.00,,,0.00,Wunderground v.1.15,2013-08-27 21:15:00,
2013-08-27 16:20:00,84.8,71.3,29.66,SW,231,4.0,6.0,64,0.00,,,0.00,Wunderground v.1.15,2013-08-27 21:20:00,
2013-08-27 16:25:00,84.1,71.1,29.66,South,170,4.0,6.0,65,0.00,,,0.00,Wunderground v.1.15,2013-08-27 21:25:00,
2013-08-27 16:30:00,84.1,71.5,29.66,SW,233,2.0,3.0,66,0.00,,,0.00,Wunderground v.1.15,2013-08-27 21:30:00,
2013-08-27 16:35:00,84.3,71.2,29.66,SSW,204,3.0,6.0,65,0.00,,,0.00,Wunderground v.1.15,2013-08-27 21:35:00,
2013-08-27 16:40:00,84.0,71.4,29.66,SSW,211,5.0,7.0,66,0.00,,,0.00,Wunderground v.1.15,2013-08-27 21:40:00,
2013-08-27 16:46:00,83.7,71.6,29.66,SSW,205,2.0,7.0,67,0.00,,,0.00,Wunderground v.1.15,2013-08-27 21:46:00,
2013-08-27 16:51:00,83.5,71.4,29.66,SW,221,2.0,4.0,67,0.00,,,0.00,Wunderground v.1.15,2013-08-27 21:51:00,
2013-08-27 16:56:00,83.6,71.5,29.66,SSE,165,3.0,6.0,67,0.00,,,0.00,Wunderground v.1.15,2013-08-27 21:56:00,
2013-08-27 17:01:00,83.7,71.6,29.66,WSW,238,5.0,9.0,67,0.00,,,0.00,Wunderground v.1.15,2013-08-27 22:01:00,
2013-08-27 17:06:00,83.3,71.2,29.66,SSW,212,6.0,11.0,67,0.00,,,0.00,Wunderground v.1.15,2013-08-27 22:06:00,
2013-08-27 17:11:00,83.0,71.3,29.66,SW,231,4.0,6.0,68,0.00,,,0.00,Wunderground v.1.15,2013-08-27 22:11:00,
2013-08-27 17:16:00,83.0,71.3,29.66,SE,133,4.0,6.0,68,0.00,,,0.00,Wunderground v.1.15,2013-08-27 22:16:00,
2013-08-27 17:21:00,83.0,71.8,29.66,SSW,208,4.0,4.0,69,0.00,,,0.00,Wunderground v.1.15,2013-08-27 22:21:00,
2013-08-27 17:26:00,82.9,71.3,29.66,SW,229,4.0,8.0,68,0.00,,,0.00,Wunderground v.1.15,2013-08-27 22:26:00,
2013-08-27 17:31:00,82.8,71.6,29.66,South,190,5.0,6.0,69,0.00,,,0.00,Wunderground v.1.15,2013-08-27 22:31:00,
2013-08-27 17:36:00,82.7,71.9,29.66,SSW,204,2.0,6.0,70,0.00,,,0.00,Wunderground v.1.15,2013-08-27 22:36:00,
2013-08-27 17:41:00,82.5,71.3,29.66,SW,231,3.0,7.0,69,0.00,,,0.00,Wunderground v.1.15,2013-08-27 22:41:00,
2013-08-27 17:46:00,82.3,71.5,29.65,SSW,204,3.0,9.0,70,0.00,,,0.00,Wunderground v.1.15,2013-08-27 22:46:00,
2013-08-27 17:51:00,82.1,71.3,29.66,SSW,210,4.0,5.0,70,0.00,,,0.00,Wunderground v.1.15,2013-08-27 22:51:00,
2013-08-27 17:56:00,81.9,71.2,29.65,SSW,204,4.0,8.0,70,0.00,,,0.00,Wunderground v.1.15,2013-08-27 22:56:00,
2013-08-27 18:01:00,81.9,71.6,29.65,SW,215,1.0,4.0,71,0.00,,,0.00,Wunderground v.1.15,2013-08-27 23:01:00,
2013-08-27 18:06:00,81.8,71.5,29.65,SE,141,3.0,5.0,71,0.00,,,0.00,Wunderground v.1.15,2013-08-27 23:06:00,
2013-08-27 18:11:00,81.6,71.7,29.65,SSW,200,2.0,3.0,72,0.00,,,0.00,Wunderground v.1.15,2013-08-27 23:11:00,
2013-08-27 18:16:00,81.5,71.6,29.65,South,170,3.0,4.0,72,0.00,,,0.00,Wunderground v.1.15,2013-08-27 23:16:00,
2013-08-27 18:21:00,81.3,71.0,29.65,SW,217,5.0,5.0,71,0.00,,,0.00,Wunderground v.1.15,2013-08-27 23:21:00,
2013-08-27 18:26:00,81.2,71.3,29.65,SW,226,5.0,5.0,72,0.00,,,0.00,Wunderground v.1.15,2013-08-27 23:26:00,
2013-08-27 18:32:00,81.0,71.1,29.65,SSW,198,2.0,3.0,72,0.00,,,0.00,Wunderground v.1.15,2013-08-27 23:32:00,
2013-08-27 18:37:00,80.9,71.0,29.65,SW,226,2.0,5.0,72,0.00,,,0.00,Wunderground v.1.15,2013-08-27 23:37:00,
2013-08-27 18:42:00,80.6,71.1,29.65,SSE,149,1.0,3.0,73,0.00,,,0.00,Wunderground v.1.15,2013-08-27 23:42:00,
2013-08-27 18:47:00,80.6,71.1,29.65,SW,221,3.0,5.0,73,0.00,,,0.00,Wunderground v.1.15,2013-08-27 23:47:00,
2013-08-27 18:52:00,80.4,70.9,29.65,SSW,208,2.0,4.0,73,0.00,,,0.00,Wunderground v.1.15,2013-08-27 23:52:00,
2013-08-27 18:57:00,80.4,70.9,29.65,South,187,1.0,4.0,73,0.00,,,0.00,Wunderground v.1.15,2013-08-27 23:57:00,
2013-08-27 19:02:00,80.3,71.3,29.65,SW,214,4.0,4.0,74,0.00,,,0.00,Wunderground v.1.15,2013-08-28 00:02:00,
2013-08-27 19:07:00,80.2,71.2,29.65,SSW,208,2.0,4.0,74,0.00,,,0.00,Wunderground v.1.15,2013-08-28 00:07:00,
2013-08-27 19:12:00,79.9,71.3,29.65,SSE,168,2.0,3.0,75,0.00,,,0.00,Wunderground v.1.15,2013-08-28 00:12:00,
2013-08-27 19:17:00,79.5,70.9,29.65,SSW,198,1.0,4.0,75,0.00,,,0.00,Wunderground v.1.15,2013-08-28 00:17:00,
2013-08-27 19:22:00,79.2,71.0,29.65,SW,231,1.0,2.0,76,0.00,,,0.00,Wunderground v.1.15,2013-08-28 00:22:00,
2013-08-27 19:27:00,78.9,70.7,29.65,SSE,160,2.0,4.0,76,0.00,,,0.00,Wunderground v.1.15,2013-08-28 00:27:00,
2013-08-27 19:32:00,78.7,70.5,29.65,SSE,160,0.0,3.0,76,0.00,,,0.00,Wunderground v.1.15,2013-08-28 00:32:00,
2013-08-27 19:37:00,78.4,70.6,29.66,SSE,158,0.0,3.0,77,0.00,,,0.00,Wunderground v.1.15,2013-08-28 00:37:00,
2013-08-27 19:42:00,78.3,70.5,29.65,SW,214,1.0,2.0,77,0.00,,,0.00,Wunderground v.1.15,2013-08-28 00:42:00,
2013-08-27 19:47:00,78.0,70.6,29.66,SSW,197,0.0,3.0,78,0.00,,,0.00,Wunderground v.1.15,2013-08-28 00:47:00,
2013-08-27 19:52:00,77.8,70.8,29.65,SSW,200,1.0,2.0,79,0.00,,,0.00,Wunderground v.1.15,2013-08-28 00:52:00,
2013-08-27 19:57:00,77.6,70.6,29.66,SSE,163,0.0,2.0,79,0.00,,,0.00,Wunderground v.1.15,2013-08-28 00:57:00,
2013-08-27 20:02:00,77.5,70.8,29.66,SSE,149,0.0,0.0,80,0.00,,,0.00,Wunderground v.1.15,2013-08-28 01:02:00,
2013-08-27 20:07:00,77.3,70.6,29.66,South,172,0.0,0.0,80,0.00,,,0.00,Wunderground v.1.15,2013-08-28 01:07:00,
2013-08-27 20:12:00,77.1,70.8,29.66,South,173,0.0,0.0,81,0.00,,,0.00,Wunderground v.1.15,2013-08-28 01:12:00,
2013-08-27 20:17:00,76.8,70.5,29.66,SSW,203,0.0,0.0,81,0.00,,,0.00,Wunderground v.1.15,2013-08-28 01:17:00,
2013-08-27 20:22:00,76.6,70.7,29.66,SSW,205,0.0,0.0,82,0.00,,,0.00,Wunderground v.1.15,2013-08-28 01:22:00,
2013-08-27 20:27:00,76.4,70.9,29.66,SSW,205,0.0,0.0,83,0.00,,,0.00,Wunderground v.1.15,2013-08-28 01:27:00,
2013-08-27 20:32:00,76.1,70.6,29.67,SSW,205,0.0,0.0,83,0.00,,,0.00,Wunderground v.1.15,2013-08-28 01:32:00,
2013-08-27 20:37:00,76.0,70.5,29.67,SSW,205,0.0,0.0,83,0.00,,,0.00,Wunderground v.1.15,2013-08-28 01:37:00,
2013-08-27 20:42:00,75.9,70.7,29.67,South,186,0.0,0.0,84,0.00,,,0.00,Wunderground v.1.15,2013-08-28 01:42:00,
2013-08-27 20:47:00,75.8,70.6,29.67,SSE,165,0.0,0.0,84,0.00,,,0.00,Wunderground v.1.15,2013-08-28 01:47:00,
2013-08-27 20:52:00,75.7,70.5,29.67,South,169,0.0,1.0,84,0.00,,,0.00,Wunderground v.1.15,2013-08-28 01:52:00,
2013-08-27 20:57:00,75.6,70.4,29.67,SW,217,1.0,2.0,84,0.00,,,0.00,Wunderground v.1.15,2013-08-28 01:57:00,
2013-08-27 21:02:00,75.5,70.3,29.67,South,191,1.0,3.0,84,0.00,,,0.00,Wunderground v.1.15,2013-08-28 02:02:00,
2013-08-27 21:07:00,75.4,70.2,29.67,SSE,167,1.0,3.0,84,0.00,,,0.00,Wunderground v.1.15,2013-08-28 02:07:00,
2013-08-27 21:12:00,75.2,70.0,29.67,SSW,193,1.0,2.0,84,0.00,,,0.00,Wunderground v.1.15,2013-08-28 02:12:00,
2013-08-27 21:17:00,75.1,70.3,29.67,SSW,211,2.0,2.0,85,0.00,,,0.00,Wunderground v.1.15,2013-08-28 02:17:00,
2013-08-27 21:22:00,75.0,70.2,29.67,SSW,203,0.0,2.0,85,0.00,,,0.00,Wunderground v.1.15,2013-08-28 02:22:00,
2013-08-27 21:27:00,74.9,69.7,29.67,SSW,194,2.0,4.0,84,0.00,,,0.00,Wunderground v.1.15,2013-08-28 02:27:00,
2013-08-27 21:32:00,74.9,69.7,29.67,SSW,195,2.0,2.0,84,0.00,,,0.00,Wunderground v.1.15,2013-08-28 02:32:00,
2013-08-27 21:37:00,74.8,69.6,29.67,SSW,193,2.0,3.0,84,0.00,,,0.00,Wunderground v.1.15,2013-08-28 02:37:00,
2013-08-27 21:42:00,74.7,69.5,29.67,SSW,207,2.0,3.0,84,0.00,,,0.00,Wunderground v.1.15,2013-08-28 02:42:00,
2013-08-27 21:48:00,74.6,69.4,29.67,South,177,1.0,4.0,84,0.00,,,0.00,Wunderground v.1.15,2013-08-28 02:48:00,
2013-08-27 21:53:00,74.5,69.3,29.68,SSE,150,1.0,4.0,84,0.00,,,0.00,Wunderground v.1.15,2013-08-28 02:53:00,
2013-08-27 21:58:00,74.5,69.3,29.68,SSW,193,0.0,4.0,84,0.00,,,0.00,Wunderground v.1.15,2013-08-28 02:58:00,
2013-08-27 22:03:00,74.4,69.2,29.68,SSE,167,1.0,3.0,84,0.00,,,0.00,Wunderground v.1.15,2013-08-28 03:03:00,
2013-08-27 22:08:00,74.3,69.1,29.68,SSE,162,1.0,3.0,84,0.00,,,0.00,Wunderground v.1.15,2013-08-28 03:08:00,
2013-08-27 22:13:00,74.1,69.0,29.67,South,177,1.0,2.0,84,0.00,,,0.00,Wunderground v.1.15,2013-08-28 03:13:00,
2013-08-27 22:18:00,74.0,68.9,29.67,SSW,212,1.0,3.0,84,0.00,,,0.00,Wunderground v.1.15,2013-08-28 03:18:00,
2013-08-27 22:23:00,74.0,68.9,29.67,South,186,3.0,4.0,84,0.00,,,0.00,Wunderground v.1.15,2013-08-28 03:23:00,
2013-08-27 22:28:00,74.0,68.9,29.67,SSW,201,2.0,4.0,84,0.00,,,0.00,Wunderground v.1.15,2013-08-28 03:28:00,
2013-08-27 22:33:00,74.0,68.9,29.67,SW,218,1.0,3.0,84,0.00,,,0.00,Wunderground v.1.15,2013-08-28 03:33:00,
2013-08-27 22:39:00,74.0,68.9,29.67,SSE,167,2.0,3.0,84,0.00,,,0.00,Wunderground v.1.15,2013-08-28 03:39:00,
2013-08-27 22:44:00,73.9,68.8,29.67,South,177,1.0,2.0,84,0.00,,,0.00,Wunderground v.1.15,2013-08-28 03:44:00,
2013-08-27 22:49:00,73.8,68.7,29.67,SSW,206,0.0,2.0,84,0.00,,,0.00,Wunderground v.1.15,2013-08-28 03:49:00,
2013-08-27 22:54:00,73.6,68.5,29.67,South,191,1.0,2.0,84,0.00,,,0.00,Wunderground v.1.15,2013-08-28 03:54:00,
2013-08-27 22:59:00,73.5,68.4,29.67,SSE,165,1.0,2.0,84,0.00,,,0.00,Wunderground v.1.15,2013-08-28 03:59:00,
2013-08-27 23:01:00,73.5,68.4,29.67,SE,141,1.0,2.0,84,0.00,,,0.00,Wunderground v.1.15,2013-08-28 04:01:00,
2013-08-27 23:02:00,73.5,68.4,29.67,SSE,168,0.0,2.0,84,0.00,,,0.00,Wunderground v.1.15,2013-08-28 04:02:00,
2013-08-27 23:07:00,73.5,68.4,29.67,SW,214,1.0,3.0,84,0.00,,,0.00,Wunderground v.1.15,2013-08-28 04:07:00,
2013-08-27 23:12:00,73.5,68.4,29.67,SSW,208,2.0,2.0,84,0.00,,,0.00,Wunderground v.1.15,2013-08-28 04:12:00,
2013-08-27 23:14:00,73.5,68.4,29.67,SSW,200,1.0,3.0,84,0.00,,,0.00,Wunderground v.1.15,2013-08-28 04:14:00,
2013-08-27 23:19:00,73.4,68.6,29.67,SSE,158,0.0,3.0,85,0.00,,,0.00,Wunderground v.1.15,2013-08-28 04:19:00,
2013-08-27 23:24:00,73.3,68.5,29.67,SSE,165,0.0,2.0,85,0.00,,,0.00,Wunderground v.1.15,2013-08-28 04:24:00,
2013-08-27 23:29:00,73.2,68.4,29.67,SSE,147,1.0,2.0,85,0.00,,,0.00,Wunderground v.1.15,2013-08-28 04:29:00,
2013-08-27 23:34:00,73.1,68.3,29.67,SE,146,1.0,3.0,85,0.00,,,0.00,Wunderground v.1.15,2013-08-28 04:34:00,
2013-08-27 23:39:00,72.9,68.5,29.67,SE,143,0.0,3.0,86,0.00,,,0.00,Wunderground v.1.15,2013-08-28 04:39:00,
2013-08-27 23:44:00,72.7,68.3,29.67,SSW,194,2.0,2.0,86,0.00,,,0.00,Wunderground v.1.15,2013-08-28 04:44:00,
2013-08-27 23:49:00,72.6,68.2,29.66,SSW,206,0.0,2.0,86,0.00,,,0.00,Wunderground v.1.15,2013-08-28 04:49:00,
2013-08-27 23:54:00,72.4,68.0,29.66,SSE,160,1.0,2.0,86,0.00,,,0.00,Wunderground v.1.15,2013-08-28 04:54:00,
2013-08-27 23:59:00,72.3,68.2,29.66,SSE,148,0.0,2.0,87,0.00,,,0.00,Wunderground v.1.15,2013-08-28 04:59:00,